GFSNW_850_spd_009.txt.gz
Wind_Speed
2 2 4 8 8 4 4 3 4 3 2 4 3 2 2 2 5 8 6 4 3 3 3 4 3 2 2 1 1 2 2 3 3 3 7 4 4 5 4 3 4 3 2 7
4 2 1 3 7 6 6 4 4 7 2 3 2 1 4 5 4 5 3 3 3 4 2 3 2 2 3 3 3 1 2 2 3 7 6 4 3 3 3 4 3 6 3 5
6 4 1 0 3 4 5 3 3 6 6 6 5 4 2 3 5 4 6 4 6 4 5 6 2 5 5 8 3 1 2 2 6 5 6 5 10 5 3 5 3 4 11 18
7 6 4 2 3 3 4 3 2 2 1 5 4 3 2 3 2 3 7 6 4 3 2 3 2 3 5 5 3 3 3 2 3 6 7 6 14 13 16 9 11 6 9 10
7 6 5 4 4 4 3 3 4 4 4 2 3 5 1 4 2 2 2 6 1 4 3 4 2 1 1 4 3 3 2 3 3 4 6 10 15 14 11 14 11 8 10 10
9 7 6 6 6 7 3 7 8 4 3 3 4 2 1 2 5 5 5 10 4 2 4 4 5 8 8 9 4 4 2 4 2 5 6 9 7 7 4 3 5 5 5 7
11 8 7 6 5 7 7 10 8 3 2 2 3 1 4 3 2 6 4 4 4 3 3 2 6 11 12 9 10 13 6 4 2 3 3 1 8 3 6 9 10 6 6 5
13 11 9 8 7 8 8 9 6 3 1 1 1 5 5 5 4 2 3 2 3 6 2 4 6 5 7 4 6 2 6 4 3 2 3 6 9 9 2 3 7 4 5 4
14 13 11 9 8 8 7 7 6 4 8 5 4 4 3 4 2 2 1 4 6 3 5 4 3 3 4 5 5 7 5 5 3 3 4 5 8 4 6 1 6 2 2 11
16 14 12 11 10 10 9 8 8 6 5 5 8 4 4 5 4 3 1 4 3 1 2 2 3 4 3 3 3 3 2 1 4 2 6 8 9 8 1 4 5 7 14 25
18 15 13 12 11 10 10 9 9 9 5 6 9 8 7 7 6 4 6 3 1 4 2 3 4 3 5 1 4 4 4 3 4 2 3 8 2 1 5 10 22 25 28 21
19 17 15 12 10 10 9 9 9 8 7 5 13 14 12 12 10 7 11 4 5 10 4 1 2 3 2 4 5 2 3 8 4 9 6 7 7 15 31 25 29 24 15 14
21 19 17 15 13 11 10 8 7 7 7 12 17 18 16 15 12 12 8 10 10 7 10 10 3 4 3 4 5 3 4 11 4 4 8 21 21 36 41 37 18 9 7 5
22 21 19 17 14 13 12 11 9 8 3 2 9 12 13 13 13 15 18 21 14 14 11 8 3 3 12 4 6 6 8 3 5 13 20 28 32 30 23 14 9 8 8 11
25 24 22 19 18 16 15 13 11 10 9 3 6 11 12 11 14 18 20 21 22 19 8 5 3 5 3 5 2 3 13 8 5 11 26 24 28 18 11 5 7 8 15 17
26 27 25 21 20 17 15 10 19 16 17 6 2 10 19 19 20 19 21 21 21 21 10 6 7 15 10 3 4 14 26 27 28 29 34 24 23 8 3 5 9 11 17 22
31 27 23 24 23 21 19 6 4 11 19 5 5 5 5 15 20 20 18 21 20 14 8 8 14 17 10 2 11 17 17 30 29 25 20 13 2 1 7 12 16 19 23 22
26 25 23 20 20 19 20 21 12 10 16 7 3 3 3 3 2 4 4 3 5 8 6 3 5 2 9 5 15 22 19 16 17 17 10 7 2 7 10 15 19 21 19 19
21 20 18 21 20 14 16 19 16 17 9 4 3 2 2 3 1 1 0 2 1 2 3 3 2 1 4 5 10 22 27 21 17 5 5 7 8 10 15 19 21 22 23 23
18 21 9 6 8 11 12 7 2 6 5 6 4 5 2 5 7 3 1 2 2 2 2 4 1 3 9 12 17 14 9 4 9 9 5 7 14 23 25 27 24 23 24 25
17 7 5 12 15 6 4 3 4 3 3 3 3 9 2 4 3 2 5 1 1 2 3 1 2 2 8 11 12 14 11 10 11 10 11 20 25 25 24 26 25 24 23 22
11 9 15 12 3 2 3 1 1 2 3 3 3 4 6 4 4 3 2 2 1 4 2 1 2 3 5 9 10 9 10 12 13 16 19 20 19 19 21 25 26 24 24 25
17 4 5 4 2 3 4 6 2 2 3 6 6 2 3 3 3 3 2 3 4 1 1 3 4 2 7 10 12 14 15 13 14 18 21 23 24 23 25 27 29 30 29 30
3 4 4 3 3 2 3 3 3 5 4 8 10 4 1 2 2 2 2 2 0 1 2 5 2 6 10 11 11 12 15 18 22 27 25 24 25 27 29 29 31 30 29 32
2 4 3 2 2 3 4 4 5 4 9 10 6 4 3 1 2 1 2 0 3 4 4 2 4 9 9 10 12 17 22 25 25 26 28 29 30 31 32 31 30 29 30 29
2 2 4 4 5 4 5 6 5 6 10 6 3 3 3 3 3 2 5 5 6 4 4 2 7 8 6 19 21 24 25 24 26 28 30 31 31 31 30 31 30 29 26 23
2 2 4 10 3 7 8 9 7 10 10 2 3 3 8 3 3 2 4 5 3 6 10 7 6 12 21 23 24 23 23 28 27 29 31 32 33 31 32 31 31 29 23 23

GFSNW_850_spd_012.txt.gz
Wind_Speed
3 4 5 8 5 6 4 2 4 3 4 4 3 2 1 2 3 7 5 5 3 3 3 4 2 2 2 5 3 3 2 4 3 4 1 1 2 3 4 4 3 1 3 6
2 3 4 5 7 6 5 4 4 6 3 3 2 0 3 5 3 5 3 3 4 4 3 4 3 3 3 5 3 2 1 2 4 8 5 5 4 1 4 5 3 6 3 6
3 3 3 2 4 4 4 3 2 5 6 6 6 4 2 3 6 6 8 4 5 5 5 6 2 2 3 6 3 5 3 2 5 5 7 5 5 4 4 5 3 4 11 17
4 3 3 2 2 3 3 3 2 2 0 4 5 4 2 3 3 4 6 5 4 4 3 3 2 2 4 4 3 3 4 2 4 6 9 8 11 11 8 8 8 6 15 8
6 4 3 3 1 1 1 3 5 5 5 3 4 5 1 3 2 3 2 6 2 3 4 4 3 3 2 5 2 2 3 3 1 4 4 5 7 11 11 9 7 11 14 15
7 5 4 4 3 2 1 4 8 4 3 3 4 2 3 4 7 5 4 12 4 3 4 4 3 6 5 2 1 2 0 3 2 5 4 9 6 4 4 3 6 5 6 9
9 7 5 4 4 4 2 7 7 4 2 2 2 2 3 4 2 6 6 7 4 4 4 2 4 6 5 5 5 7 5 4 2 3 5 2 6 3 7 7 9 9 7 6
10 8 6 5 5 5 4 7 4 3 2 1 3 7 7 7 7 4 4 2 4 8 2 4 6 5 6 3 6 2 5 5 2 2 3 6 12 6 2 2 7 3 3 3
12 9 8 7 7 6 5 6 5 4 9 5 6 5 6 3 2 3 3 6 9 5 5 4 3 3 4 4 4 7 5 5 3 2 4 5 8 3 3 2 6 2 2 19
14 11 9 8 8 8 7 6 5 4 3 4 9 4 6 6 4 3 3 5 4 4 2 3 3 4 2 2 2 2 2 0 4 3 4 8 10 11 1 3 5 5 13 22
16 13 11 9 9 9 9 8 7 6 3 5 8 6 6 6 6 4 6 4 1 4 3 3 3 3 5 2 4 5 4 3 4 2 3 8 4 3 3 9 16 21 23 14
17 15 13 11 10 9 9 7 6 6 4 2 8 9 8 8 5 7 11 2 4 7 4 1 3 3 2 5 3 1 3 7 3 8 7 6 7 16 32 30 27 25 9 6
19 17 15 12 10 9 9 8 6 5 4 8 12 9 10 11 10 12 6 6 8 6 6 9 2 3 4 4 5 3 4 6 4 2 7 16 26 39 32 23 10 4 4 8
21 19 17 15 12 10 9 8 7 6 2 1 4 6 6 10 12 12 14 18 11 10 8 5 3 2 11 4 5 5 8 2 3 6 19 27 27 17 17 17 11 11 10 14
22 20 18 16 14 12 11 10 10 9 7 2 4 10 14 14 9 12 16 19 19 14 6 4 3 5 3 4 0 2 14 6 4 13 25 19 20 12 14 7 6 12 13 18
26 23 22 19 16 13 11 6 15 16 15 3 1 4 7 9 15 18 19 19 18 15 6 6 5 10 7 3 3 9 21 22 28 26 27 23 14 10 9 8 11 16 19 22
28 25 24 20 17 18 17 6 4 14 18 4 3 4 3 11 14 15 17 18 17 12 6 7 8 15 9 2 8 16 30 29 21 17 16 9 2 6 10 12 15 19 22 23
28 27 21 21 22 21 21 20 7 10 14 5 2 3 2 3 1 3 4 5 4 6 4 3 2 3 5 3 4 11 15 17 11 6 3 9 10 8 9 14 21 25 25 25
28 25 27 23 23 18 17 18 21 16 10 4 5 3 2 4 3 2 2 2 1 3 2 2 2 1 3 3 15 15 14 8 5 10 12 9 11 15 19 23 21 22 26 26
27 26 10 7 11 11 11 7 5 6 5 5 4 8 2 6 6 1 2 2 1 2 2 2 2 2 3 9 10 12 14 15 11 10 11 18 22 23 25 24 18 21 26 29
16 6 4 12 19 7 4 3 4 3 1 3 4 7 3 6 2 2 3 2 1 2 3 0 1 2 2 10 13 12 12 11 11 11 12 17 19 23 26 27 26 26 27 28
8 6 16 14 4 3 4 2 1 1 3 4 4 3 2 3 3 2 1 2 1 3 2 0 2 3 4 4 7 7 8 9 11 14 18 22 25 24 24 27 30 30 31 32
17 5 5 3 2 2 4 6 2 2 5 6 6 3 4 3 3 3 2 2 3 2 1 3 3 6 7 6 7 7 9 13 19 21 22 24 23 24 25 29 30 31 31 33
3 4 4 2 2 1 2 1 3 3 4 9 10 5 3 2 2 2 2 1 0 0 1 5 2 5 4 5 6 10 17 21 22 22 23 25 26 29 30 31 30 29 30 31
3 3 3 2 3 3 4 5 6 4 6 9 6 5 3 2 3 0 2 1 3 3 4 3 5 4 5 6 15 20 22 22 22 22 26 27 29 30 33 35 34 32 30 28
2 3 4 5 3 4 5 5 5 6 10 7 4 3 3 1 3 3 5 5 5 4 3 4 2 4 7 17 20 21 19 20 22 26 26 27 30 31 35 37 34 31 29 31
3 3 5 8 3 11 9 7 6 8 7 2 3 2 7 3 2 2 4 5 4 10 2 3 4 14 21 23 22 21 20 23 25 25 26 28 31 33 34 32 32 28 28 27

GFSNW_850_spd_015.txt.gz
Wind_Speed
4 6 8 9 8 8 6 3 4 5 9 4 3 3 5 4 2 5 4 5 4 3 3 3 3 3 1 3 1 2 1 2 2 2 2 1 2 3 3 2 2 1 1 7
2 4 6 8 6 8 5 4 5 5 7 3 1 1 3 4 2 4 3 3 3 3 3 4 2 3 1 5 2 1 2 2 3 2 2 2 2 2 4 4 2 7 3 6
0 2 4 5 7 5 5 4 2 3 4 6 7 5 2 4 6 5 7 4 4 4 4 5 3 2 1 3 2 3 2 2 4 4 4 2 5 4 4 4 3 4 12 19
2 1 2 3 4 4 3 2 2 3 1 3 6 4 3 4 3 4 4 4 3 5 3 2 2 1 2 2 2 2 3 3 3 5 9 5 8 13 10 12 12 7 13 15
4 2 0 1 2 2 2 3 5 6 4 4 5 4 1 4 3 2 2 6 2 3 4 4 4 3 2 3 2 2 2 2 1 4 6 5 9 12 11 12 14 13 18 19
5 3 2 1 1 1 2 4 8 4 3 2 4 2 4 5 8 6 4 13 5 4 4 5 3 4 3 2 3 2 1 3 1 3 5 9 6 3 4 3 6 4 5 6
7 5 3 1 1 2 3 6 7 4 1 2 3 4 3 4 3 7 6 6 5 4 6 5 1 2 5 3 5 1 4 3 1 3 4 2 1 4 7 9 12 7 9 6
8 6 4 2 2 2 4 8 4 4 3 2 3 8 8 11 8 5 6 3 6 10 4 3 4 4 5 3 7 3 2 4 2 2 3 7 10 2 2 3 6 3 2 4
10 8 6 4 4 5 5 6 6 5 12 5 8 6 7 4 3 3 3 6 10 5 5 3 3 2 3 2 1 4 4 4 1 3 3 5 5 1 4 3 8 2 5 22
13 10 8 7 6 6 5 6 7 5 6 9 10 4 5 6 5 3 3 5 4 4 2 2 2 3 1 2 1 2 1 1 4 5 5 8 9 6 2 2 4 5 14 19
14 12 10 9 7 6 6 6 6 6 5 10 7 6 6 7 6 4 8 5 0 3 3 3 3 2 3 2 2 3 3 3 4 3 4 7 2 3 2 3 21 20 18 17
15 13 11 10 9 7 7 6 5 6 4 5 6 6 5 5 4 6 13 3 5 7 4 1 3 3 2 4 3 2 4 6 3 8 6 5 6 17 21 19 12 10 12 6
16 15 14 11 9 8 7 7 6 5 4 3 5 5 7 7 7 7 5 4 6 7 7 9 2 3 4 4 6 2 3 6 4 1 8 14 23 27 16 7 12 11 13 13
18 16 15 13 11 9 7 7 6 6 4 3 3 6 4 8 9 10 11 10 9 8 8 5 3 2 10 4 3 5 8 4 4 6 20 22 16 14 12 7 10 7 10 13
20 18 16 14 12 10 8 7 7 8 6 4 3 6 7 9 7 9 11 11 13 10 5 4 3 4 4 2 1 3 8 7 4 7 17 13 9 8 7 4 5 7 11 17
22 20 17 15 13 10 7 3 10 11 10 2 1 2 7 10 12 14 14 16 15 12 7 5 6 9 4 2 3 7 20 23 24 18 17 8 10 5 5 4 7 11 14 18
25 21 18 16 14 12 10 3 1 13 12 5 2 4 3 8 10 9 10 13 9 9 6 8 5 8 9 2 3 2 7 9 9 8 3 3 4 4 4 7 12 16 21 22
26 23 19 18 16 15 17 17 9 8 9 5 3 3 1 4 4 4 3 4 6 4 3 2 4 3 6 3 2 10 9 4 5 6 6 12 7 3 7 13 20 25 25 24
26 24 20 19 22 18 19 17 22 16 10 7 7 5 3 4 3 2 3 3 2 1 2 2 3 1 4 2 6 7 6 5 17 13 10 8 11 14 17 20 22 23 25 25
26 26 14 9 11 14 18 14 11 15 6 6 3 5 2 6 6 2 2 2 1 1 1 2 1 2 3 5 11 17 18 17 7 7 10 12 15 18 22 24 25 25 28 31
23 7 5 13 19 9 5 4 4 4 1 3 3 7 3 4 2 2 1 1 1 1 0 2 2 2 6 14 12 9 6 4 3 5 9 13 18 23 25 28 28 30 32 33
8 13 18 12 4 4 3 2 3 1 2 3 3 3 4 5 3 3 2 2 0 3 1 1 2 1 12 9 7 4 3 2 7 12 15 18 20 21 24 27 29 29 30 32
12 5 4 4 3 3 3 4 2 2 6 6 5 3 4 4 3 4 2 3 3 1 1 3 2 8 11 9 5 2 3 10 15 18 18 18 20 22 23 26 27 30 34 35
3 4 4 2 2 1 2 2 3 4 6 11 10 5 3 3 3 2 3 1 1 2 2 4 2 11 8 5 2 7 14 17 18 19 19 20 24 25 26 27 31 32 34 33
4 4 3 2 3 5 8 12 9 7 11 15 7 6 3 2 2 1 2 2 3 4 4 2 12 7 4 4 9 16 20 20 20 19 21 24 24 26 29 31 31 31 31 31
3 4 4 6 5 4 7 9 10 9 13 10 5 3 2 1 3 3 4 4 5 3 3 11 6 4 4 11 17 19 20 20 19 21 23 25 25 26 30 33 32 31 30 30
2 3 6 6 4 8 9 8 9 11 9 2 4 3 3 4 1 3 4 5 3 8 8 3 4 6 15 19 22 22 20 20 20 24 24 24 24 27 31 33 33 32 31 28

GFSNW_850_spd_018.txt.gz
Wind_Speed
6 7 9 10 12 12 10 5 4 10 12 4 2 4 4 3 4 3 4 5 5 4 3 3 3 4 3 2 1 2 4 1 2 1 2 2 1 2 1 2 2 2 4 7
5 6 8 8 12 11 8 4 5 6 9 3 3 4 4 4 3 3 3 3 2 3 4 4 5 3 2 1 1 2 1 0 2 3 5 4 5 4 2 1 1 9 4 4
5 5 6 8 10 9 8 4 3 2 2 3 10 10 6 5 6 4 6 5 7 7 5 3 6 5 3 1 2 2 1 2 4 5 7 5 6 9 7 9 4 7 12 17
5 5 5 5 7 7 7 2 2 3 3 4 10 5 6 11 5 3 3 4 3 5 4 4 4 3 4 2 3 1 2 3 4 8 12 13 11 14 13 15 15 10 14 16
4 4 4 4 5 6 3 4 5 4 4 7 10 1 6 9 6 2 4 7 7 4 5 2 5 4 3 2 4 2 1 1 3 4 8 9 12 15 14 13 14 15 16 16
5 4 4 4 4 5 3 4 9 5 1 3 3 3 6 8 9 5 4 15 10 8 8 6 6 5 5 2 1 2 1 1 1 4 9 12 6 2 5 5 4 8 9 10
7 4 3 4 4 5 4 6 7 4 3 1 3 7 6 11 3 8 9 6 5 4 8 8 7 9 7 3 3 1 3 3 1 3 5 3 3 6 11 12 13 6 12 7
8 6 4 3 4 5 5 9 4 3 3 4 5 10 11 12 10 10 8 4 7 10 4 2 3 1 2 3 6 3 2 3 2 1 3 14 11 3 2 5 13 9 5 5
10 7 6 5 5 7 7 6 6 4 12 4 8 8 11 6 4 5 4 6 12 5 3 2 2 2 1 3 4 4 5 3 2 3 3 4 2 3 3 3 11 5 12 19
12 9 7 6 7 8 8 8 7 5 6 8 9 4 7 6 5 4 5 6 3 3 2 2 3 3 2 3 3 4 3 2 4 6 6 8 7 2 0 4 4 11 16 11
14 11 9 8 7 7 8 8 8 6 4 12 7 8 7 7 7 4 9 6 2 2 3 3 3 2 3 3 1 3 4 5 4 2 4 6 4 3 5 12 16 16 9 8
15 13 10 9 8 8 8 7 7 7 5 7 10 8 9 8 9 9 12 1 6 8 3 2 3 3 1 2 3 4 5 6 3 7 6 9 10 16 16 15 15 6 4 6
15 14 12 10 8 8 8 8 8 8 7 7 8 8 10 10 10 10 6 6 7 6 6 7 2 3 5 4 6 5 5 9 4 5 12 18 13 19 7 3 4 5 7 4
16 15 13 11 9 8 8 9 9 8 5 4 5 9 11 12 11 12 12 9 12 9 8 4 3 2 8 3 6 8 8 4 8 12 19 20 9 6 3 4 6 4 6 8
18 16 14 13 11 9 8 8 9 10 5 4 4 9 9 11 12 12 13 12 13 10 6 4 3 3 4 2 1 4 15 13 7 6 14 7 4 2 5 2 2 5 8 10
19 17 16 14 12 9 7 4 8 9 7 3 2 5 8 12 12 12 12 10 11 9 6 5 5 8 7 3 4 7 13 12 13 7 11 2 3 0 4 2 5 7 11 16
21 18 16 13 13 12 8 3 2 12 10 3 1 2 4 8 9 10 9 11 5 6 5 6 6 6 10 2 3 5 5 4 6 5 5 5 4 3 1 3 9 13 17 19
23 21 18 15 14 13 15 11 2 7 7 5 3 2 1 7 5 5 6 5 9 6 4 3 4 4 5 3 2 1 2 6 5 6 5 7 4 1 6 10 14 18 21 22
27 24 22 19 20 15 19 16 14 11 9 5 6 5 4 9 4 4 4 5 2 2 2 2 3 2 5 4 3 2 6 4 11 8 5 2 3 7 11 15 18 19 21 22
29 29 17 9 11 12 17 12 9 11 11 8 6 7 3 6 6 2 4 2 1 2 1 2 2 2 3 4 7 11 13 13 7 3 1 5 8 11 14 16 17 19 23 27
27 10 8 11 25 15 11 6 5 5 1 5 4 6 4 5 3 3 2 2 2 2 2 2 2 3 8 14 13 11 10 7 3 1 2 7 11 14 16 18 20 24 26 29
13 15 19 17 5 3 4 3 5 3 3 6 5 4 5 5 3 4 3 2 2 3 3 2 3 3 16 17 12 11 8 4 1 6 9 12 14 14 19 22 24 25 28 31
18 6 4 4 2 2 5 6 2 4 6 6 6 4 4 4 3 5 2 3 2 2 3 3 1 11 16 15 12 8 5 4 10 13 13 15 16 17 20 22 23 26 30 30
4 3 4 0 3 1 0 3 4 3 7 13 13 6 2 3 3 2 3 2 2 3 4 5 4 15 15 12 9 6 4 11 15 17 17 16 18 22 22 22 24 27 29 30
4 3 2 2 3 5 6 9 8 6 14 13 9 6 2 2 3 1 3 4 4 4 3 1 10 13 11 8 7 7 13 16 18 19 19 18 20 23 25 23 26 28 30 30
3 4 3 4 4 3 5 8 10 11 15 9 4 3 2 2 2 4 5 3 5 2 2 7 11 10 8 5 9 14 17 19 20 19 19 21 23 23 25 27 28 29 31 31
2 3 9 6 3 8 9 11 9 13 12 2 3 5 2 5 2 3 4 4 1 2 7 10 7 5 6 13 18 20 21 20 20 20 21 22 22 23 25 29 30 31 31 29

GFSNW_850_spd_021.txt.gz
Wind_Speed
7 6 9 13 16 17 17 9 6 11 14 9 6 5 6 4 9 4 3 2 4 6 5 3 3 5 5 2 3 4 5 2 2 4 4 3 4 4 5 3 4 3 4 7
6 7 8 14 16 17 9 6 6 11 14 4 3 5 6 4 8 3 4 3 2 4 6 4 6 6 4 3 4 6 5 1 3 4 6 5 4 1 2 2 3 10 7 6
7 7 7 12 15 14 8 6 3 6 8 5 10 10 10 7 4 4 4 6 7 8 6 4 7 7 4 2 4 3 3 2 3 5 9 9 8 10 9 9 7 10 11 16
7 6 7 9 12 13 8 2 2 5 7 6 10 10 10 10 5 3 7 4 4 8 4 7 5 7 6 3 2 1 3 2 5 9 12 12 12 13 13 14 15 14 17 17
6 6 6 7 9 10 4 4 4 3 3 8 10 4 10 12 5 8 7 7 8 6 7 3 6 5 3 2 4 1 2 0 4 4 6 9 13 16 17 16 10 14 13 16
6 5 6 6 7 7 3 4 8 6 3 8 8 7 9 9 10 3 3 11 8 9 9 11 10 8 5 3 1 3 1 1 2 4 10 13 5 2 1 4 7 8 11 11
7 6 5 6 6 6 4 6 6 5 4 7 8 7 9 11 6 9 10 8 7 5 10 10 9 9 5 1 2 2 4 1 2 3 6 3 4 6 12 10 8 8 11 11
8 7 5 5 6 6 5 10 4 4 3 6 6 10 14 11 13 15 12 6 7 11 3 1 2 1 3 0 3 3 3 3 2 2 5 13 10 3 4 9 13 13 7 7
10 8 7 6 6 7 8 7 6 3 13 5 11 12 15 11 7 7 5 7 7 4 3 2 2 3 1 5 6 4 3 1 3 3 3 4 3 1 1 5 12 9 10 19
11 9 8 7 7 8 8 7 7 4 6 6 9 8 11 7 10 5 7 7 4 3 2 1 3 3 2 3 3 4 2 2 5 6 5 7 9 2 4 6 3 14 16 11
12 10 9 9 9 8 7 7 6 6 5 7 4 5 7 7 10 5 10 6 2 3 2 4 3 1 4 2 3 5 7 6 4 4 4 6 4 5 1 9 17 9 8 7
14 12 10 10 10 9 8 4 5 5 5 6 9 9 11 10 7 5 13 1 7 9 3 3 2 3 0 0 3 6 5 7 4 8 5 12 12 14 11 7 7 9 6 7
15 13 11 10 10 10 10 8 9 6 6 5 6 5 9 8 10 11 6 4 6 7 2 7 3 3 5 4 5 7 8 15 6 8 8 16 14 11 6 6 7 7 7 8
15 13 11 10 9 9 9 9 10 7 5 5 4 8 9 12 11 10 8 6 11 8 4 4 3 3 10 4 7 8 9 6 9 13 19 15 3 6 4 11 7 5 5 8
15 13 12 10 9 9 8 9 9 9 3 3 3 6 10 12 14 10 8 7 7 5 4 3 3 4 2 2 2 9 16 14 9 8 9 3 3 5 11 5 3 4 8 10
16 14 13 12 10 9 5 3 8 9 8 3 2 3 3 9 9 7 8 9 8 7 5 4 5 6 5 3 3 7 12 10 12 11 7 3 4 5 3 4 4 6 11 15
17 15 13 11 11 12 7 3 5 13 9 4 2 3 2 8 7 6 7 10 6 6 4 5 5 8 7 2 5 9 11 10 7 4 3 4 4 2 3 2 7 11 14 18
18 16 15 13 12 12 10 6 5 11 6 5 2 2 2 7 5 4 7 5 5 5 3 3 4 3 5 5 9 10 9 7 5 3 2 2 5 2 2 7 11 15 17 20
21 19 16 15 16 13 15 12 7 6 5 3 4 5 4 8 4 4 4 4 2 3 3 4 5 3 5 7 13 10 11 9 8 8 6 3 1 3 7 10 14 16 18 19
27 24 16 10 11 13 18 11 6 7 8 6 6 7 4 8 6 3 5 3 1 3 3 4 3 3 8 6 7 9 11 11 11 7 5 3 5 7 10 12 14 16 18 19
24 13 5 8 25 18 11 6 7 7 3 6 5 13 5 6 3 4 4 3 4 3 3 3 3 3 12 13 12 14 14 11 6 4 2 3 7 10 12 13 15 16 18 20
16 10 14 17 4 3 5 3 3 4 4 6 6 3 5 6 5 4 4 3 3 3 6 2 3 3 11 17 16 13 11 8 5 2 4 7 10 11 12 14 17 17 22 25
17 4 5 2 1 2 4 7 3 3 5 8 7 4 5 4 4 4 3 4 2 1 2 3 2 7 13 14 14 11 9 7 4 5 8 10 13 15 17 19 21 21 22 24
4 3 3 2 2 1 2 3 4 4 7 13 14 6 3 3 3 2 3 2 3 3 3 4 1 8 11 12 10 10 7 5 9 13 16 18 19 19 18 20 21 22 24 26
3 3 2 3 2 4 5 7 7 8 10 9 7 5 3 3 2 1 3 4 3 4 2 3 3 9 10 9 7 6 6 11 15 14 17 20 18 20 22 21 21 22 26 27
3 3 3 4 4 3 4 6 7 7 9 7 5 2 1 2 1 3 3 2 3 2 2 3 8 9 8 7 5 8 13 18 20 20 19 19 19 21 22 22 22 23 24 27
3 3 5 4 5 5 4 4 4 7 5 2 3 0 3 2 1 2 2 2 2 1 3 6 7 8 6 5 10 17 19 20 19 18 18 20 21 22 22 22 18 18 25 26

GFSNW_850_spd_024.txt.gz
Wind_Speed
4 5 11 13 17 22 21 9 4 10 12 8 11 8 2 1 8 3 2 4 2 4 4 3 4 8 7 3 3 6 4 2 1 7 6 4 3 5 4 1 4 1 1 6
5 5 11 15 19 23 16 7 6 14 17 5 4 3 5 6 8 8 5 2 1 2 5 3 6 8 3 4 7 4 4 1 3 8 5 4 0 3 2 4 2 5 4 4
6 6 10 16 19 21 15 8 3 6 11 11 12 8 7 5 4 5 1 4 4 6 5 3 6 9 4 5 8 3 3 1 1 2 6 7 7 10 8 10 4 6 8 14
7 6 9 16 18 17 9 6 6 10 7 9 7 11 9 10 6 5 6 5 6 6 3 5 5 10 8 5 3 2 3 1 4 7 9 8 9 11 11 12 12 9 11 16
7 6 8 12 15 14 11 5 3 6 6 16 10 5 7 11 7 9 9 4 7 8 6 3 7 6 5 4 4 2 3 1 3 3 5 10 13 15 13 13 13 10 11 12
7 6 7 9 11 13 6 3 2 6 2 4 5 5 8 9 10 2 4 7 7 11 13 14 13 13 10 6 4 4 2 1 2 3 9 10 3 3 6 8 7 9 5 10
7 6 6 7 9 10 5 6 3 4 2 5 8 9 7 8 10 6 8 8 9 8 13 11 12 12 8 1 5 2 4 2 2 2 4 2 4 14 11 7 6 9 11 9
7 6 6 6 6 6 6 7 4 3 2 10 5 10 8 13 8 11 13 10 8 14 4 2 2 2 4 1 4 3 4 3 2 1 3 9 9 3 5 5 9 9 7 14
8 7 6 6 5 5 5 7 8 3 8 2 7 8 14 8 9 7 5 6 7 4 3 2 2 3 2 6 6 9 4 4 2 2 2 3 3 7 4 6 8 10 14 11
10 8 6 6 6 6 6 6 7 5 5 2 1 8 10 12 11 5 8 6 4 1 2 2 3 2 2 4 5 4 2 2 3 5 5 6 8 6 1 3 3 10 8 7
11 9 8 7 7 7 7 5 6 7 4 4 3 4 5 2 10 4 12 5 2 3 3 3 2 1 3 1 3 6 7 6 4 4 3 6 1 4 2 6 13 7 8 7
13 10 9 8 8 8 7 3 5 6 5 6 8 9 9 8 5 7 15 2 7 8 3 2 1 2 1 3 2 6 4 6 4 9 5 11 9 5 3 5 7 7 8 5
14 12 10 9 8 9 9 7 8 5 6 5 5 3 8 9 8 12 6 4 4 8 4 7 3 3 4 4 4 2 3 9 3 3 8 12 5 8 10 5 8 8 5 5
14 12 11 9 8 7 7 7 8 6 5 5 3 5 6 8 8 11 9 8 10 8 7 4 3 3 11 5 6 4 6 7 6 9 13 10 6 8 3 4 3 0 2 5
14 13 11 9 8 7 6 5 7 8 3 4 2 4 9 8 8 6 6 7 9 5 4 3 3 4 1 4 1 3 8 7 5 7 4 4 3 5 3 0 2 1 3 7
13 12 11 10 8 7 6 1 5 8 7 3 2 2 1 4 6 6 6 6 8 9 5 4 4 6 7 3 4 7 11 8 7 2 5 7 8 3 2 3 2 2 6 8
13 12 11 10 10 11 5 3 3 8 8 3 2 3 1 6 5 6 5 5 4 6 3 7 4 4 5 3 5 8 10 12 7 3 7 4 6 4 6 4 2 5 8 11
12 11 10 10 9 8 5 4 3 9 4 3 3 2 1 6 4 2 2 4 5 4 3 3 3 3 1 4 10 16 18 11 5 5 6 5 7 6 5 2 4 7 10 13
14 13 11 9 8 6 7 8 4 8 4 3 4 5 4 7 4 4 4 5 1 3 3 4 5 3 6 7 8 10 8 9 8 8 8 8 6 3 1 3 7 9 11 13
21 16 9 6 10 10 10 5 3 4 6 6 6 7 3 7 6 3 5 2 2 2 3 5 2 3 13 13 7 5 11 12 12 12 9 6 2 2 3 6 9 9 12 15
24 10 7 8 19 15 9 6 5 5 3 7 7 14 6 7 4 3 6 3 3 3 3 3 3 3 9 14 8 9 11 13 11 5 6 3 0 3 7 9 11 16 16 18
13 9 12 12 4 1 3 3 2 3 3 3 5 4 5 5 5 4 5 3 3 5 9 2 3 3 9 13 12 12 12 11 9 6 3 1 4 6 10 14 17 17 20 21
15 4 4 3 1 2 3 4 2 1 3 4 4 3 5 5 3 4 2 5 4 3 3 2 2 7 8 11 12 10 10 11 9 3 2 5 10 14 17 18 18 19 22 21
3 3 3 2 2 1 2 2 2 2 3 8 10 4 3 3 3 3 3 1 2 2 3 4 2 8 10 10 10 9 8 4 2 8 11 15 19 20 19 19 20 22 22 20
3 3 2 2 2 3 3 3 5 6 8 7 6 4 3 2 2 1 2 3 2 2 1 2 11 9 11 12 11 5 1 4 9 13 19 21 21 21 22 21 21 21 22 23
2 3 3 3 4 2 4 8 9 6 8 6 4 2 0 2 1 2 1 1 1 2 3 5 7 9 8 8 6 4 5 13 18 20 19 19 20 21 23 24 24 23 21 20
2 2 6 5 6 5 4 6 5 4 4 2 2 1 4 1 1 1 1 2 2 4 5 5 6 6 6 4 2 11 17 18 18 19 20 22 23 24 25 25 23 16 16 21

GFSNW_850_spd_030.txt.gz
Wind_Speed
12 15 21 24 25 24 21 12 2 13 11 4 1 2 4 3 3 5 5 3 4 4 4 4 4 3 2 7 2 3 2 5 3 2 2 1 2 3 4 4 2 1 4 4
12 15 20 24 27 28 22 13 5 11 14 3 2 5 4 2 2 1 2 2 4 4 4 6 3 4 4 10 4 2 2 2 3 6 6 5 2 2 5 6 3 5 5 5
12 14 19 24 28 30 20 9 3 4 7 3 6 2 3 2 4 2 4 3 5 5 5 6 4 3 4 6 4 3 2 3 5 6 4 3 1 2 4 5 3 3 6 5
11 13 19 23 30 31 16 5 4 9 4 4 3 4 4 3 1 2 4 4 3 5 3 3 4 3 2 4 2 3 3 3 1 1 3 1 1 2 1 4 4 5 6 6
12 12 17 23 29 29 14 5 4 8 9 14 7 5 6 8 3 3 0 3 4 5 4 5 7 7 3 4 2 2 3 1 2 3 6 6 3 5 5 4 4 4 8 6
12 11 15 21 25 26 11 6 4 10 1 6 4 4 6 9 10 5 2 14 8 9 4 16 18 10 11 9 6 2 3 4 3 3 4 5 6 5 3 1 2 4 5 6
13 12 15 19 22 23 10 6 4 5 1 4 6 3 3 6 3 8 6 11 7 11 18 16 18 25 21 19 12 5 4 4 3 3 3 1 5 5 4 9 4 8 11 8
13 13 14 17 19 19 12 8 3 4 1 1 2 5 13 19 20 8 10 7 11 19 6 5 5 5 6 4 6 6 4 5 3 3 3 5 4 4 5 5 5 4 9 10
14 13 14 15 17 15 10 10 7 4 10 2 1 7 18 6 4 5 4 15 12 6 6 4 4 4 5 2 2 9 6 6 4 2 4 6 5 2 7 7 5 14 13 13
14 13 13 13 13 12 12 11 9 6 6 5 4 4 7 10 7 4 3 3 4 4 3 3 3 3 4 4 6 4 3 3 4 2 2 7 7 5 7 5 7 17 13 11
14 13 13 12 12 13 13 13 11 8 6 7 5 8 10 11 10 5 9 5 2 4 4 3 4 3 5 2 5 6 7 6 4 3 2 7 12 4 7 6 14 17 14 10
13 12 11 11 12 13 14 14 11 8 5 8 11 13 11 11 9 12 16 5 5 7 4 2 3 2 1 2 3 2 2 7 5 9 6 7 16 8 15 15 17 18 12 8
12 11 11 11 11 10 10 13 12 9 10 8 6 8 9 8 10 12 9 7 8 8 6 8 3 2 4 4 5 3 4 8 3 3 5 12 16 12 13 14 13 13 7 7
12 11 11 10 10 9 8 10 9 6 7 5 4 5 6 6 7 11 8 9 14 13 10 5 3 3 10 3 3 4 6 7 4 4 2 5 11 13 15 13 9 7 11 11
13 11 11 10 9 9 8 8 8 6 2 5 5 6 3 4 4 5 5 8 13 11 5 3 3 4 3 0 2 3 7 7 4 5 11 9 8 20 17 13 11 13 17 12
13 12 11 10 10 11 11 4 5 6 6 3 2 3 2 5 7 8 9 8 6 5 4 4 4 3 4 3 3 11 16 19 16 11 13 13 8 18 14 14 16 15 12 7
13 12 11 10 10 10 5 5 6 9 7 3 3 2 2 8 9 8 6 6 3 3 4 5 3 2 3 3 5 10 14 14 13 12 12 13 20 12 16 14 17 14 10 6
13 12 11 10 10 10 9 8 8 10 5 3 3 2 1 6 3 3 3 3 5 1 3 4 4 2 1 4 13 17 22 20 13 17 12 8 16 20 17 16 17 13 8 2
13 12 11 10 9 6 7 6 6 6 3 6 3 4 3 6 3 3 3 2 2 1 1 2 3 2 5 6 7 8 10 11 14 18 10 16 18 19 21 17 11 5 2 7
12 11 4 4 8 9 9 4 3 3 2 3 3 5 1 4 3 2 2 1 1 1 3 4 2 3 15 19 16 8 9 12 20 24 18 20 21 16 11 6 1 3 7 12
13 5 3 7 13 5 3 2 2 2 1 1 2 5 4 3 3 2 3 2 1 2 4 3 2 3 4 8 2 7 8 18 19 19 20 16 13 8 2 4 5 9 13 15
12 8 12 9 3 2 4 2 1 1 3 3 3 4 4 4 4 4 4 2 1 4 7 1 2 2 6 16 19 20 20 20 21 18 15 11 5 3 2 6 10 12 13 13
17 4 4 2 2 2 3 6 1 2 3 4 3 2 3 4 5 3 2 4 4 5 2 2 2 10 13 16 16 16 13 15 17 14 10 6 2 4 8 9 10 12 13 14
4 3 3 1 1 2 1 1 2 2 1 3 4 4 2 2 2 2 3 0 1 3 2 3 1 8 11 12 14 15 13 7 6 5 3 7 10 9 9 10 11 14 16 16
4 3 3 1 4 4 4 4 4 4 5 5 5 4 3 1 2 1 2 1 1 0 1 2 5 3 4 12 12 8 8 5 5 8 10 11 11 12 12 13 14 14 15 17
4 4 4 6 5 3 4 6 5 5 7 5 3 1 1 0 1 2 2 3 2 1 2 2 6 6 6 3 4 4 2 6 10 11 11 13 13 13 13 11 11 15 17 19
3 3 8 6 8 6 5 6 6 6 3 1 2 2 2 1 1 2 2 2 2 4 2 4 4 4 3 6 4 2 9 12 11 12 12 11 11 11 11 15 17 20 21 22

GFSNW_850_spd_033.txt.gz
Wind_Speed
23 24 26 29 30 29 25 16 3 16 16 5 2 3 5 3 2 6 4 4 3 6 4 4 3 4 1 4 1 2 2 5 3 1 4 3 2 2 4 4 2 1 3 5
23 24 26 30 32 31 25 13 5 14 13 4 1 3 3 1 2 3 2 2 2 2 5 6 2 3 1 3 3 4 2 2 3 6 6 5 2 3 5 5 3 4 4 5
23 23 26 32 33 32 21 10 3 3 5 4 7 3 2 0 3 3 3 3 5 5 5 6 4 3 2 2 5 5 3 3 5 6 4 3 3 2 3 5 3 3 6 3
22 22 27 32 35 34 17 7 4 8 4 2 4 5 2 4 2 2 3 3 3 5 4 3 4 2 2 4 2 3 4 4 2 3 4 1 2 4 6 6 5 5 5 7
20 22 28 32 36 34 16 8 5 6 7 17 6 3 6 7 2 2 0 5 3 1 6 6 7 6 3 3 3 3 4 1 2 1 5 5 4 6 6 6 4 6 4 4
18 21 27 31 36 34 14 6 4 7 1 5 6 5 6 8 7 4 1 9 5 5 2 6 10 5 9 8 6 3 3 4 3 3 4 5 6 8 9 5 4 6 6 7
18 21 25 29 34 36 16 7 6 5 1 3 7 7 5 6 4 7 4 8 6 13 29 27 24 26 22 20 13 5 5 4 3 2 3 2 6 4 5 4 2 3 3 9
19 21 24 27 31 34 16 11 7 5 2 2 3 8 7 15 15 5 4 2 7 25 6 5 5 5 6 5 7 7 3 5 3 3 3 5 4 4 6 6 7 6 8 8
20 21 24 26 27 28 16 9 6 3 13 2 7 7 12 5 4 4 4 15 26 5 5 4 4 4 4 1 2 6 6 6 4 3 4 6 6 3 7 4 5 17 16 15
19 19 22 25 26 26 20 11 8 5 8 4 11 4 8 10 7 4 4 5 3 3 2 3 3 3 3 4 6 3 2 3 5 2 3 8 7 6 6 5 7 20 24 27
17 17 19 20 22 22 16 12 10 8 7 6 5 9 9 10 9 5 10 5 1 4 4 3 3 3 5 2 4 6 7 6 4 3 1 8 11 5 8 6 6 23 25 26
17 17 17 17 18 18 16 16 11 9 7 10 13 12 8 7 9 13 15 4 6 7 4 1 3 2 2 2 3 2 3 7 5 9 6 4 18 6 20 9 10 21 23 22
17 17 16 16 16 15 14 16 13 10 18 11 9 10 10 6 8 10 8 6 8 7 6 8 3 2 4 4 6 3 4 7 3 3 5 14 12 24 14 15 13 17 17 15
15 15 14 14 13 12 11 13 12 8 9 6 3 7 7 6 5 8 5 6 13 12 8 5 3 3 9 3 3 3 4 7 4 4 8 7 13 19 21 16 13 16 14 15
14 13 13 13 13 12 11 11 10 7 3 6 6 8 5 4 4 4 5 7 13 9 5 3 3 5 3 1 2 3 9 6 4 6 12 9 8 12 18 19 19 18 20 17
13 13 13 13 13 13 13 5 6 7 8 5 2 4 4 6 5 8 11 10 7 6 5 4 4 4 5 4 4 13 17 20 18 8 10 14 17 14 20 19 17 19 13 13
12 11 11 12 11 11 3 5 9 10 8 4 4 2 3 6 7 6 5 6 3 2 4 4 4 5 5 3 4 7 14 15 16 16 14 9 10 9 18 17 18 17 16 13
12 11 10 11 10 9 8 9 9 9 5 3 4 2 2 5 2 2 3 3 4 2 2 2 2 3 2 3 9 12 12 14 16 17 15 13 11 11 16 17 20 17 12 10
12 11 11 10 8 4 7 8 7 6 3 5 3 4 3 5 3 3 2 1 2 1 1 2 2 1 4 4 8 10 10 8 9 11 7 9 17 22 23 21 14 7 9 4
13 14 4 4 7 11 10 4 2 2 2 3 4 4 2 3 2 3 2 2 1 1 3 1 1 3 10 14 15 15 15 13 12 15 15 19 20 19 19 12 7 4 5 9
12 4 3 11 14 5 3 3 4 3 2 2 2 2 3 2 3 2 2 2 1 2 3 3 2 2 5 11 10 7 5 4 12 15 21 20 20 15 12 4 1 6 9 11
7 8 13 9 2 3 5 2 1 2 2 2 2 3 3 3 2 4 2 2 1 4 5 1 2 2 9 13 16 19 18 18 18 16 17 14 13 9 3 1 6 9 10 12
13 3 4 3 3 3 5 5 1 2 3 2 3 2 2 3 2 5 2 3 3 3 2 2 0 8 11 8 6 14 18 18 18 17 13 9 5 3 6 8 9 10 10 10
4 3 3 2 2 2 1 1 2 3 3 5 6 4 3 3 3 2 3 0 1 3 2 3 1 5 7 6 10 13 12 12 12 9 5 2 3 4 5 6 7 9 9 10
4 3 3 2 4 4 4 7 6 6 6 6 6 5 3 2 2 1 2 1 2 1 1 1 3 5 10 9 7 9 8 7 7 7 7 8 9 9 8 8 7 8 12 15
4 4 4 8 5 3 4 5 7 5 6 6 4 2 2 0 1 2 2 2 1 2 1 8 8 6 10 6 5 3 4 8 10 10 10 11 10 11 12 9 9 12 17 21
3 3 8 6 9 7 5 7 5 8 4 2 2 3 3 2 2 1 2 2 2 10 8 8 5 2 2 5 7 3 5 6 9 11 11 11 11 11 11 14 16 20 22 25

GFSNW_850_spd_036.txt.gz
Wind_Speed
36 32 30 31 32 31 31 19 3 18 19 4 2 4 5 2 4 2 3 4 3 5 3 4 3 4 2 2 1 3 1 5 2 2 2 2 2 3 4 4 3 1 3 6
36 32 32 34 35 35 30 12 6 15 18 4 1 3 1 2 2 3 2 3 3 3 4 5 2 3 1 1 2 6 5 2 3 6 5 4 2 3 4 5 3 5 5 5
35 33 34 36 38 36 25 13 3 4 6 4 7 5 3 2 2 3 5 4 5 5 4 5 5 3 1 1 3 5 4 3 5 7 4 3 4 4 4 5 3 4 6 4
33 33 35 39 40 37 20 8 3 8 3 1 3 5 6 4 2 3 4 4 3 4 4 3 3 2 2 4 3 3 3 4 2 2 3 2 2 4 6 7 5 6 4 7
32 33 36 40 41 38 18 8 6 5 4 16 6 3 6 6 3 3 2 6 2 2 6 6 8 6 4 4 3 3 3 2 1 2 3 5 3 6 7 5 3 7 4 8
31 33 38 42 42 39 16 8 10 12 1 4 5 6 6 7 7 3 3 6 5 3 1 4 12 7 11 7 5 3 3 5 3 4 4 5 6 9 9 5 5 7 6 8
30 33 37 41 42 39 18 11 12 6 2 3 6 8 4 5 3 7 3 6 5 10 28 27 22 24 22 20 12 5 5 4 3 2 3 2 6 2 5 8 5 7 2 4
28 32 36 39 41 38 20 11 7 5 2 3 3 7 6 13 9 5 4 3 8 23 6 5 5 5 6 5 6 7 4 5 3 3 3 6 5 5 6 7 7 8 7 4
27 31 35 37 39 39 23 11 9 4 13 5 7 6 7 5 4 3 4 8 28 2 5 4 4 4 4 2 1 5 5 6 4 3 4 6 6 3 4 4 5 7 13 12
28 31 32 34 37 39 23 10 9 5 7 6 12 4 8 9 6 4 5 9 3 2 3 3 3 3 2 4 5 3 3 3 4 2 3 8 7 3 4 5 7 8 18 23
27 28 29 32 33 34 21 11 10 6 7 7 6 9 10 11 9 5 11 6 1 4 4 3 3 3 5 2 4 6 7 6 4 3 2 7 8 4 7 6 7 9 19 24
25 24 27 29 30 30 22 7 9 11 8 11 15 12 9 7 8 13 18 5 6 7 5 1 3 2 1 2 3 2 2 6 5 8 6 5 13 7 15 6 6 9 17 22
22 22 23 24 26 32 23 20 15 13 21 13 9 12 11 9 9 10 9 6 8 8 6 8 3 3 4 4 5 2 4 6 2 2 5 11 19 21 23 13 15 13 13 19
21 21 21 22 22 20 20 20 16 12 10 6 4 7 8 7 7 8 7 8 14 13 8 5 3 3 8 3 3 3 4 6 4 5 12 13 20 19 22 25 20 14 13 17
20 20 20 19 19 18 16 17 13 12 4 6 8 11 9 8 6 6 6 10 13 8 5 3 3 5 4 2 1 3 9 6 4 6 13 8 13 15 13 15 17 17 18 17
19 19 19 18 19 18 17 7 9 10 11 7 2 4 5 8 8 10 11 9 7 5 4 3 4 4 3 4 3 9 8 14 16 8 9 14 17 17 16 15 12 14 15 16
18 18 17 16 15 15 6 7 11 10 9 4 4 2 3 5 6 5 4 5 4 2 4 3 4 3 4 3 4 4 12 13 16 16 15 14 13 9 7 11 13 15 18 20
16 15 14 13 11 13 14 13 11 11 6 4 3 2 2 3 2 2 2 3 3 5 3 3 3 4 2 3 5 12 12 14 8 12 6 9 6 5 9 12 20 26 20 13
15 15 14 12 8 6 9 11 8 6 4 5 3 4 3 2 3 3 3 3 3 1 2 1 2 1 3 5 17 18 17 13 13 7 3 6 11 16 18 21 16 17 17 9
16 15 5 5 7 16 12 4 2 3 4 4 4 2 2 2 2 3 3 4 1 1 2 1 1 1 6 13 11 11 12 10 4 9 14 18 21 21 18 19 15 11 4 4
9 4 5 14 12 4 4 4 6 5 4 4 4 3 3 2 3 2 3 1 1 1 3 2 1 1 4 9 13 13 13 11 11 12 17 20 20 18 17 11 7 2 4 8
7 9 14 9 3 5 6 2 2 3 2 2 2 3 4 3 2 5 2 2 1 3 3 1 2 2 6 12 15 17 17 20 23 22 21 19 17 12 8 3 4 6 7 8
13 4 4 2 4 5 4 4 1 1 2 2 3 3 3 3 3 5 2 3 2 4 2 1 1 8 6 7 15 19 17 17 18 16 14 10 6 3 3 5 6 8 9 11
4 4 4 3 2 2 1 2 2 3 4 7 8 5 3 3 3 1 2 1 1 2 2 2 1 7 10 8 11 11 11 10 9 7 4 2 2 4 6 8 9 8 7 7
4 3 3 2 4 5 6 8 7 6 6 6 6 5 3 2 2 2 3 2 1 2 3 1 2 11 15 12 12 8 7 6 5 5 5 6 7 7 7 7 7 8 11 15
4 4 4 7 6 3 4 9 9 7 7 7 4 2 2 1 2 2 3 4 4 2 2 9 10 14 12 10 7 3 4 7 7 8 8 8 8 9 9 8 10 13 17 21
4 4 8 7 8 7 5 7 6 7 3 2 3 3 3 2 2 0 1 3 3 12 14 12 10 7 6 5 6 1 2 3 6 7 8 7 8 8 11 15 18 21 24 27

GFSNW_850_spd_042.txt.gz
Wind_Speed
32 45 44 42 40 34 31 20 9 19 22 12 13 12 12 6 8 7 7 7 7 12 11 8 9 10 3 5 5 5 2 1 4 5 3 1 2 5 8 4 4 1 2 3
34 38 36 47 42 40 39 19 9 20 30 11 8 9 7 7 6 8 8 8 5 6 10 5 5 6 2 3 5 6 6 3 4 4 4 4 7 9 5 4 1 6 3 3
37 50 32 44 41 41 30 25 7 9 15 17 16 13 15 8 3 5 5 5 4 8 6 1 7 7 3 3 2 3 4 3 7 10 2 0 6 11 11 11 4 5 10 12
38 46 38 43 41 41 31 19 10 16 12 16 12 16 14 14 6 4 8 5 8 8 5 6 6 6 5 4 6 3 3 6 4 2 0 3 4 8 13 15 14 8 11 11
37 46 34 43 41 42 36 15 10 14 26 23 13 12 12 17 6 6 7 8 10 7 6 8 10 10 7 5 7 5 2 3 3 3 2 2 7 8 10 15 16 15 19 20
44 38 38 44 45 53 22 16 16 27 9 14 12 11 12 14 11 1 3 11 9 6 4 5 8 7 8 6 7 6 4 5 4 2 2 3 6 15 18 13 12 15 14 16
46 41 42 46 47 58 21 18 19 16 7 12 13 12 10 12 9 7 5 4 4 6 20 22 18 18 15 11 10 3 6 5 1 1 2 3 1 1 3 12 16 15 17 10
38 39 44 45 47 56 30 15 17 13 4 16 11 13 7 11 7 5 7 4 5 22 5 4 4 2 2 5 7 5 1 4 3 2 4 6 12 3 3 3 6 4 12 8
37 42 43 45 48 50 25 17 15 18 12 10 19 13 14 7 6 5 5 9 20 5 2 2 4 4 4 5 4 3 5 3 2 3 3 4 3 4 1 2 5 3 3 4
40 41 42 44 51 51 22 17 15 16 7 8 14 15 13 8 6 5 8 11 3 2 2 2 2 3 1 5 5 4 2 1 4 3 4 6 1 1 3 2 3 1 2 4
39 39 41 45 52 48 23 22 18 15 7 10 10 11 10 9 10 6 12 7 2 2 2 2 3 2 4 3 2 4 5 6 3 3 3 4 6 6 3 4 4 3 4 5
37 38 42 47 53 33 23 22 17 13 10 7 11 12 15 17 14 11 18 1 8 8 3 1 3 3 1 1 3 3 3 3 1 6 1 3 7 7 3 5 9 9 7 6
36 39 41 47 51 28 18 19 19 14 11 9 7 5 9 12 15 15 8 6 9 7 7 6 2 3 4 4 4 3 5 4 3 2 2 5 7 8 10 11 13 12 12 12
35 38 42 48 53 30 8 15 15 13 12 6 3 7 7 9 13 15 12 13 17 17 8 4 3 3 4 3 1 3 2 8 5 4 8 6 4 4 8 11 11 9 7 7
34 37 40 43 48 35 15 17 13 8 3 6 8 10 9 9 10 8 9 18 18 11 5 3 2 5 4 2 0 2 2 1 2 2 5 5 6 12 11 10 8 5 2 6
34 36 39 40 40 29 22 8 7 8 11 7 4 5 7 13 14 17 17 15 10 5 5 4 4 2 2 3 4 4 4 4 4 4 11 7 6 8 9 7 8 10 14 15
35 38 40 45 37 25 21 12 17 13 9 5 4 4 3 8 9 8 9 8 6 5 5 4 4 2 4 2 3 3 5 5 4 5 7 3 11 8 11 14 16 16 19 22
41 41 38 36 28 18 13 11 17 13 5 4 4 3 3 3 4 4 4 3 4 7 4 4 3 3 1 2 4 5 7 5 5 7 8 10 11 11 13 15 20 24 24 21
37 35 30 27 20 7 14 15 13 9 3 5 4 4 3 3 4 4 3 4 3 3 2 2 3 2 2 2 3 6 8 4 3 9 10 11 14 17 20 21 19 19 16 12
32 28 15 7 11 24 16 4 3 2 6 6 4 3 3 2 2 3 2 4 2 2 2 3 2 2 4 2 3 4 6 6 10 14 14 19 22 20 17 15 13 9 5 2
15 6 6 21 15 6 3 4 5 5 4 5 4 4 4 3 2 3 2 3 1 3 2 3 3 3 4 6 6 7 8 7 10 16 20 18 17 15 10 5 3 2 4 5
12 19 18 8 4 4 6 2 1 4 2 2 3 4 4 4 3 4 2 3 1 2 6 2 3 3 10 11 14 17 17 18 18 17 14 10 7 5 4 3 4 5 5 6
12 6 5 4 5 5 2 4 2 3 2 3 4 3 3 4 4 5 2 3 2 7 2 2 2 13 16 19 15 14 12 13 12 10 8 5 5 4 4 4 4 4 4 5
5 5 5 3 2 4 3 2 3 3 6 10 11 5 3 3 3 1 3 2 3 3 4 3 5 17 22 16 13 12 11 10 8 7 6 5 4 4 4 4 4 4 6 9
6 5 4 3 3 5 6 8 7 8 8 7 7 6 3 2 3 1 3 3 3 2 2 3 15 22 20 16 11 11 10 9 7 5 4 3 3 2 2 2 3 6 10 15
6 7 4 5 5 3 6 11 9 7 9 7 5 3 2 2 2 3 3 3 2 3 3 9 20 19 16 14 12 12 9 7 6 4 3 2 2 1 2 5 9 14 17 18
5 5 10 9 11 6 5 7 5 6 4 2 1 2 2 2 2 2 1 1 2 8 10 13 14 16 17 14 13 9 8 7 4 3 2 1 1 3 7 11 15 18 19 22

GFSNW_850_spd_045.txt.gz
Wind_Speed
38 36 34 41 40 37 32 27 11 23 29 17 17 15 20 25 15 11 11 9 13 14 13 12 11 16 11 11 8 11 5 4 7 11 3 5 9 8 9 6 6 3 3 5
37 37 35 42 42 42 37 25 17 24 33 14 14 19 21 24 17 12 13 11 13 12 11 11 12 11 6 6 8 6 6 7 9 7 6 6 8 10 8 7 1 9 4 3
36 37 35 39 44 43 41 24 10 10 22 33 23 23 21 19 21 13 15 15 14 10 12 11 10 9 4 6 6 0 1 12 10 10 8 5 12 12 12 12 8 10 11 13
36 36 34 39 43 46 44 17 16 19 15 22 23 24 18 22 18 13 15 12 15 14 11 14 8 10 7 7 6 6 5 9 13 14 6 8 8 9 10 15 17 15 12 15
38 37 36 36 42 50 47 13 20 28 23 35 22 22 23 24 20 16 15 16 19 16 10 11 11 12 10 8 9 8 5 6 4 5 7 9 11 13 13 14 17 18 18 18
37 35 37 48 42 51 30 26 17 28 23 24 19 19 24 21 20 5 10 20 17 12 2 7 9 6 2 4 8 10 6 4 4 7 3 5 6 15 18 17 17 14 15 16
38 36 38 48 45 50 34 24 11 19 15 19 21 24 24 19 11 11 6 14 11 6 16 18 16 14 10 7 5 4 5 7 1 1 1 1 2 2 5 7 12 14 14 13
37 37 36 48 52 49 44 26 9 13 4 23 23 25 24 18 10 12 14 4 6 22 10 4 5 2 3 3 3 3 4 5 3 3 6 9 12 5 2 2 5 6 8 9
38 44 37 48 41 53 47 21 9 5 11 17 34 20 28 11 11 7 6 14 13 6 3 2 5 5 7 6 7 3 3 3 4 3 3 4 3 4 2 1 5 8 7 4
42 39 47 42 47 55 55 27 7 5 16 18 26 18 18 22 15 6 8 9 5 3 2 2 3 5 3 6 5 5 3 2 6 5 3 6 4 3 2 5 3 7 7 5
44 43 38 41 51 47 51 40 10 9 8 12 12 17 24 15 22 7 14 8 3 4 3 3 3 1 4 2 3 6 7 7 3 3 3 5 7 6 1 5 6 5 7 7
39 36 43 44 45 44 44 33 11 8 6 8 10 15 16 17 12 15 19 4 13 10 5 1 3 2 1 1 3 4 4 4 2 6 1 5 5 4 3 7 9 10 11 11
39 40 39 39 40 42 46 19 9 6 9 10 9 7 10 16 18 16 8 6 8 8 4 6 3 3 4 4 4 3 4 3 3 1 3 3 1 3 4 7 8 10 9 10
38 37 37 38 39 44 39 15 15 8 9 6 3 3 3 9 14 15 12 14 15 14 8 4 3 3 4 3 1 4 3 6 5 5 8 3 7 5 8 10 9 8 6 7
35 36 37 39 44 41 15 13 15 12 3 5 8 9 7 5 7 9 10 12 14 9 5 3 2 4 4 2 1 3 4 1 3 1 5 4 7 8 9 6 7 6 5 8
34 36 40 45 51 29 15 7 6 9 11 8 4 5 7 10 12 13 13 12 9 6 5 4 5 2 2 4 4 4 4 2 2 2 4 3 4 10 10 11 11 12 13 13
36 38 44 56 44 18 7 4 11 9 5 5 4 5 3 6 6 6 8 8 6 4 5 4 3 4 4 2 3 7 2 1 2 3 2 6 9 7 10 12 13 14 17 18
37 39 41 46 41 21 6 13 16 16 6 2 4 3 4 3 4 4 4 4 4 7 5 4 3 4 1 3 6 4 3 4 5 6 9 12 12 11 13 13 15 17 18 16
40 41 41 38 17 8 10 19 20 17 6 2 3 6 4 3 4 3 4 4 3 3 2 2 3 2 2 4 5 4 4 3 6 8 10 11 14 14 14 15 13 12 10 8
42 38 19 8 10 25 19 7 3 4 3 5 3 3 4 3 3 3 3 3 3 2 1 5 1 2 5 4 4 4 3 9 11 14 12 14 15 14 13 11 9 8 6 5
22 11 6 22 16 6 4 4 2 3 3 5 4 5 5 3 2 3 2 3 2 3 3 4 4 3 6 6 6 5 9 8 6 12 17 15 14 12 9 6 6 5 5 4
14 18 24 19 4 5 5 1 1 4 2 2 3 5 5 4 3 4 3 3 2 3 7 2 3 3 13 11 11 13 16 18 19 17 15 12 9 8 7 6 5 3 3 2
24 11 5 1 4 5 2 4 2 3 2 4 5 3 4 4 4 5 2 3 2 8 2 2 2 13 14 16 17 16 15 15 15 13 11 10 8 6 5 3 3 5 2 4
8 6 5 4 3 4 3 3 3 3 6 12 11 5 4 3 3 1 3 2 3 4 4 3 4 18 21 17 16 15 14 15 12 10 8 6 5 5 4 4 3 2 5 9
6 5 4 4 3 6 5 7 7 8 9 6 6 6 4 3 3 2 3 3 3 3 0 3 15 24 19 18 16 13 15 13 10 8 7 6 5 3 2 1 2 5 9 11
8 9 4 4 4 5 7 12 10 6 7 4 4 3 2 3 2 3 2 3 2 3 3 12 24 24 17 16 14 12 12 10 10 7 5 4 4 4 2 3 6 10 13 15
4 5 12 11 11 7 5 6 5 6 4 2 2 3 4 2 2 3 2 2 3 8 10 17 23 22 17 15 14 14 11 9 8 7 6 4 4 3 3 3 8 12 12 17

GFSNW_850_spd_048.txt.gz
Wind_Speed
44 41 38 37 39 37 33 22 8 23 35 16 16 15 21 29 25 14 11 15 15 13 14 14 16 15 13 12 8 8 12 5 4 10 2 5 10 11 8 3 6 3 0 5
45 42 38 40 40 43 41 19 17 31 36 12 13 17 24 28 23 19 15 15 12 13 14 12 14 9 5 7 7 3 4 4 5 9 7 8 8 12 9 8 2 5 3 3
46 44 41 41 41 48 37 17 8 12 30 25 22 23 21 25 30 20 17 14 16 13 13 9 9 9 4 3 1 3 5 5 9 6 11 4 6 10 11 10 3 4 9 13
47 44 43 43 41 51 36 16 12 14 10 18 17 20 20 26 25 24 19 17 17 13 10 11 11 11 6 4 2 2 3 8 12 14 14 12 8 13 7 10 10 10 11 15
47 46 44 44 42 49 39 15 11 25 9 27 22 21 26 26 26 19 21 14 18 16 12 13 10 11 8 7 7 8 5 6 5 8 10 13 10 14 15 14 15 15 14 14
45 43 45 45 44 46 26 36 25 14 20 21 20 23 24 26 23 22 28 17 14 15 9 6 9 6 18 8 11 10 7 3 2 2 6 7 5 10 15 16 15 11 12 10
46 45 45 44 40 50 32 38 14 8 10 18 24 24 24 26 22 18 16 12 18 9 18 17 17 14 10 6 3 10 6 5 2 1 1 1 9 3 5 5 8 9 10 10
43 43 41 42 41 52 39 38 18 8 6 19 24 28 21 26 25 10 13 8 9 25 13 5 4 2 3 1 4 4 4 5 2 2 4 7 12 2 2 1 3 11 9 9
39 38 40 44 46 54 51 36 25 14 5 17 39 27 27 14 9 4 1 10 20 12 3 3 4 4 6 7 7 1 2 5 3 3 3 5 1 6 3 2 2 8 9 7
37 37 39 39 40 51 44 41 34 17 6 21 40 21 19 33 12 4 10 4 6 4 3 2 2 3 4 5 6 4 2 1 4 3 2 5 3 6 1 3 3 7 8 10
36 37 39 40 35 47 51 55 40 20 7 26 37 32 21 24 24 7 11 9 3 4 3 3 2 2 3 2 8 7 7 6 3 2 2 6 7 6 2 5 6 9 8 9
38 39 36 38 36 44 40 39 50 32 27 11 18 15 17 12 9 23 26 5 12 8 4 2 3 2 2 2 3 10 4 5 4 7 4 6 7 10 7 6 7 9 8 9
35 35 41 35 48 43 53 48 33 20 2 8 10 11 17 13 9 20 7 6 12 9 8 5 2 3 3 3 3 2 5 5 2 2 4 9 8 13 10 8 7 7 7 7
39 37 38 43 40 49 59 48 29 12 1 3 6 3 3 11 11 17 12 12 11 15 13 5 3 3 6 3 2 3 2 8 5 5 3 13 13 11 7 6 6 6 7 10
42 43 41 38 43 46 36 36 25 17 5 5 6 5 6 3 10 10 9 16 18 12 5 3 2 4 4 2 1 1 5 0 3 1 6 7 11 8 8 9 10 10 11 12
36 37 41 42 34 29 24 13 15 7 10 6 3 4 7 7 8 9 10 11 10 7 5 3 5 2 0 3 3 6 9 8 7 6 6 12 14 13 13 14 13 11 11 11
44 44 42 35 33 36 12 4 10 8 3 5 4 4 5 11 12 10 8 8 6 5 5 3 4 4 4 3 2 12 8 7 7 5 7 9 9 11 12 12 13 14 16 15
37 36 35 40 32 13 9 11 9 11 8 6 3 1 5 3 5 4 4 5 5 7 5 3 3 4 2 2 11 12 8 9 9 10 12 18 16 15 14 14 14 16 15 14
34 35 37 39 17 7 9 14 15 12 8 3 2 3 4 4 4 5 4 2 3 3 2 2 4 2 2 6 12 10 5 8 14 12 12 14 15 15 15 15 13 13 11 11
37 38 25 4 12 10 23 5 2 5 5 3 1 1 2 3 3 2 3 3 3 2 2 5 2 2 7 6 7 7 7 11 12 15 14 15 16 16 14 13 12 12 11 9
30 9 5 22 25 8 4 4 3 3 2 1 1 5 4 4 3 3 2 2 1 2 2 3 3 3 6 8 8 8 12 13 9 11 15 14 16 16 12 11 9 8 5 5
15 19 29 18 3 4 4 2 1 1 2 1 2 5 5 3 3 4 2 3 2 3 7 2 3 3 13 11 10 11 13 15 18 19 19 17 14 12 12 10 8 6 6 5
34 12 5 4 6 5 2 4 2 3 2 3 5 3 4 4 5 5 2 3 3 11 2 2 2 13 14 15 18 20 20 21 21 18 15 14 14 12 9 9 10 7 3 3
7 5 5 3 2 3 3 3 3 2 4 13 12 4 3 3 4 2 4 2 2 3 4 3 4 16 18 19 20 21 20 19 17 15 13 11 10 10 8 8 7 3 2 6
7 5 4 3 1 4 3 5 6 7 10 8 7 6 5 3 3 2 3 3 4 3 1 2 14 24 20 20 19 18 20 17 14 12 11 10 9 7 7 5 3 3 5 8
7 8 4 2 4 4 9 12 10 6 5 4 4 3 3 3 2 2 1 4 2 2 3 14 25 22 19 19 16 18 16 15 12 12 11 9 8 7 4 2 2 6 9 13
5 5 12 10 11 8 6 7 7 6 4 2 2 4 4 1 2 2 3 3 2 9 13 20 24 22 19 18 18 19 16 13 10 10 9 8 6 4 4 2 5 7 8 12

GFSNW_850_spd_051.txt.gz
Wind_Speed
49 48 43 40 39 37 36 27 6 20 35 13 8 13 11 15 23 22 10 5 1 1 8 5 7 5 8 7 11 5 8 5 4 14 20 14 6 6 6 5 5 3 5 5
45 50 47 43 44 45 43 21 16 29 38 11 12 9 14 24 17 16 6 4 3 3 4 5 8 8 7 5 5 6 2 2 3 1 4 3 3 5 4 3 4 4 5 5
51 52 49 46 48 49 39 18 7 15 31 21 19 15 15 21 27 21 25 11 9 5 5 5 5 3 1 7 5 5 6 0 5 6 6 4 4 5 6 4 4 4 6 4
50 53 51 50 50 50 39 20 12 14 11 18 11 17 12 18 15 21 18 12 8 8 5 5 0 4 3 3 2 2 4 4 1 4 5 5 4 1 5 4 5 6 8 7
43 42 47 50 52 49 40 16 12 22 5 23 17 14 22 25 22 13 19 15 10 9 7 8 7 5 5 5 1 3 1 3 3 1 5 7 4 6 6 6 6 5 3 4
48 51 40 52 52 52 33 29 24 26 16 14 17 20 17 21 19 20 28 12 7 7 9 9 6 4 19 12 9 7 6 4 3 2 4 6 6 7 5 6 4 3 3 5
40 46 41 52 53 59 29 30 17 8 5 13 16 22 20 23 24 17 15 27 8 10 23 21 17 19 16 13 5 8 6 5 3 3 3 1 8 2 5 5 5 8 8 9
34 43 45 52 55 53 51 28 14 7 2 14 16 23 20 25 30 17 15 16 7 24 11 4 4 5 6 2 4 3 4 5 2 4 4 5 8 2 3 4 4 5 7 7
37 47 51 49 51 48 45 31 9 6 2 10 27 22 26 15 15 7 2 5 16 4 4 4 5 5 6 4 2 8 6 5 5 2 4 6 6 4 5 3 1 6 13 10
45 49 46 47 46 44 39 48 33 9 6 8 21 20 26 28 10 4 5 3 5 10 2 3 3 4 8 5 9 4 3 3 5 2 2 7 5 8 2 6 6 8 13 13
48 48 44 45 44 42 37 50 22 12 6 17 14 32 27 32 24 6 11 7 2 2 4 3 3 3 4 4 8 8 7 6 3 3 2 6 10 5 6 6 14 14 15 14
40 41 41 44 42 39 41 39 40 25 8 13 20 2 28 42 34 22 17 10 16 14 4 2 3 3 2 3 2 2 2 7 6 7 6 5 20 24 20 20 17 13 9 7
37 38 37 38 38 38 42 49 34 29 10 23 20 5 14 21 29 27 11 7 13 7 7 6 3 4 4 3 4 3 2 6 4 5 1 13 23 21 17 13 15 12 6 4
33 35 35 37 38 38 42 45 33 17 7 3 6 8 7 24 21 25 24 28 16 6 11 6 3 4 6 4 4 5 5 5 6 5 11 21 17 15 14 13 12 9 7 8
30 33 34 31 33 33 26 29 31 27 13 3 3 11 12 18 26 21 35 24 31 17 4 4 2 5 5 2 3 1 2 4 4 4 8 14 12 15 14 15 15 11 8 12
30 30 31 31 32 29 24 8 33 48 28 8 1 5 14 15 9 12 22 23 14 8 6 2 4 3 4 3 3 2 17 16 12 8 16 23 24 20 14 14 12 10 11 14
30 32 30 33 29 29 20 7 16 52 51 8 2 3 5 17 16 11 14 13 12 6 5 4 4 3 5 3 3 12 19 20 22 20 25 18 13 14 12 13 15 16 18 18
30 32 27 27 30 22 33 7 12 20 9 5 3 2 3 5 5 5 7 5 7 8 5 3 3 3 4 3 9 21 21 20 14 11 9 22 21 17 18 19 18 21 24 21
38 36 31 28 14 16 21 12 15 10 5 6 3 4 2 3 6 5 5 4 2 3 2 2 4 1 2 3 17 16 22 11 25 21 22 20 20 22 20 16 20 22 19 18
35 38 12 9 14 19 16 2 2 3 6 6 3 4 2 4 3 3 3 3 2 2 2 4 3 2 8 13 17 15 19 24 22 27 22 22 24 22 19 17 20 18 14 12
35 7 4 25 25 6 2 3 4 2 4 5 4 4 3 3 3 2 2 2 1 3 3 4 1 3 4 9 11 12 16 15 14 14 19 20 24 25 24 19 15 13 12 11
10 21 24 10 3 3 5 2 2 4 2 2 2 5 4 4 3 4 1 3 2 2 4 3 3 2 17 15 15 17 16 15 17 22 24 23 21 20 15 16 15 13 12 12
27 7 6 2 5 6 3 3 2 3 2 3 4 2 3 3 4 5 2 3 1 6 2 3 1 13 16 16 20 19 21 26 27 26 25 22 21 15 13 16 14 12 11 8
6 5 5 3 3 3 2 2 3 3 4 15 14 4 3 4 4 1 4 1 1 1 2 3 3 16 20 22 24 29 27 25 24 22 19 16 16 16 16 14 11 8 6 4
7 6 5 4 2 5 4 6 8 9 12 10 8 5 4 2 3 2 3 2 3 3 2 2 15 23 24 27 27 28 26 22 18 17 17 17 16 15 15 12 9 5 2 2
7 8 4 3 3 5 9 12 14 7 5 4 3 3 3 3 3 2 2 4 2 2 2 14 24 23 25 26 26 25 22 17 17 18 17 15 13 12 10 8 5 2 2 5
6 6 12 9 10 8 4 9 7 5 3 2 3 4 2 1 3 3 3 2 2 8 12 20 23 26 24 22 21 19 18 16 18 17 16 13 10 9 7 5 3 1 4 6

GFSNW_850_spd_054.txt.gz
Wind_Speed
46 45 45 43 40 36 35 28 8 22 39 13 8 15 14 12 24 18 8 4 7 4 8 8 9 10 9 7 11 9 7 5 4 9 2 4 4 5 5 5 4 1 4 5
48 44 43 46 43 44 41 17 13 26 36 12 11 8 20 16 13 6 4 4 5 3 4 3 7 7 2 2 7 9 8 1 2 7 6 4 3 5 5 4 4 6 5 6
45 42 49 45 47 47 47 16 8 13 30 32 20 17 13 20 25 19 15 10 7 5 2 4 1 3 2 3 4 10 8 5 7 8 7 4 3 4 4 6 3 4 6 6
47 48 52 41 50 51 51 18 9 17 13 18 15 17 13 17 12 18 12 9 16 10 5 3 6 3 2 2 10 3 4 5 4 5 3 3 1 0 1 4 4 5 7 6
50 52 50 45 51 53 52 15 10 26 4 25 17 18 21 24 20 9 15 16 13 6 7 7 5 7 4 5 2 5 2 3 2 3 3 3 3 3 4 5 4 4 4 5
48 53 49 53 53 57 36 25 24 27 19 17 17 19 19 22 21 17 28 15 15 12 11 19 18 20 22 12 10 7 6 6 3 4 3 3 5 6 6 5 3 5 5 4
52 50 50 53 59 59 38 40 18 17 5 13 19 21 16 21 21 21 18 31 10 15 15 10 12 16 12 11 2 9 6 6 3 3 3 2 7 5 3 9 4 6 9 5
47 55 52 54 45 61 49 38 19 10 10 11 12 19 23 15 30 17 22 21 14 26 10 4 4 5 5 3 6 5 6 5 3 4 3 4 5 4 6 5 1 4 7 7
45 48 49 57 39 54 64 29 15 8 4 9 21 14 22 16 12 12 11 17 13 16 3 3 5 4 5 4 3 4 8 6 5 3 4 7 7 3 8 6 1 3 9 6
43 40 35 48 48 56 57 35 23 3 1 4 29 15 15 25 13 3 5 11 5 5 3 3 3 3 7 6 9 5 4 3 5 2 3 7 7 7 5 6 6 10 15 11
36 34 30 41 55 49 52 51 22 11 5 6 1 20 15 28 33 11 7 7 1 3 4 3 1 3 6 4 6 6 7 7 3 3 3 6 6 4 7 6 15 19 16 14
35 33 34 37 49 49 44 33 31 12 6 6 10 8 12 20 31 27 19 7 8 9 4 2 3 3 1 5 3 2 1 7 6 8 5 3 3 10 22 24 23 15 15 12
39 34 43 46 50 47 38 35 20 25 12 13 18 18 10 11 26 32 15 6 11 11 12 5 3 5 2 4 4 4 1 5 4 6 2 3 19 21 22 19 17 15 12 9
40 43 44 40 38 39 36 30 23 20 5 2 9 11 14 11 22 33 35 22 20 21 18 6 3 4 7 4 5 5 6 8 7 4 3 12 11 18 22 20 16 13 11 9
40 37 34 34 35 35 32 32 24 30 13 3 11 18 6 10 21 32 40 32 25 10 4 3 2 3 4 2 3 1 5 7 5 5 20 8 10 18 21 19 16 14 12 17
32 32 31 34 34 33 29 10 25 34 23 3 3 6 1 8 14 21 24 20 17 8 5 1 4 1 2 4 2 3 3 8 17 10 29 19 26 21 16 16 16 15 16 17
29 30 30 31 29 27 21 7 8 36 22 4 4 4 6 11 15 13 10 9 8 5 5 5 3 5 1 2 3 8 13 17 19 27 31 24 25 15 17 17 18 19 22 22
28 26 27 23 25 22 26 9 8 17 30 4 2 3 4 6 1 6 5 7 7 5 5 2 2 2 3 2 5 22 25 27 28 23 5 22 24 23 21 21 25 29 29 25
28 27 26 22 19 13 29 19 1 13 13 6 1 4 2 4 5 5 6 5 3 6 3 1 2 2 2 2 14 23 29 13 24 19 22 27 26 25 24 27 28 28 26 22
28 25 10 7 14 10 17 17 4 4 6 7 3 4 2 5 3 3 3 4 2 2 1 3 3 1 2 10 16 21 14 23 28 31 24 27 27 24 24 27 23 24 22 19
24 15 6 21 27 15 8 7 5 5 2 4 1 3 4 4 4 2 4 2 1 3 2 4 2 2 3 12 18 21 22 23 17 10 23 21 28 31 28 25 23 20 17 17
10 20 30 17 5 4 4 2 0 1 3 1 2 4 7 6 4 4 2 2 3 2 3 3 2 1 15 15 21 21 21 17 17 21 26 28 28 27 27 24 21 18 16 16
25 8 5 4 1 3 3 4 2 3 1 2 4 3 4 4 6 5 3 3 1 1 3 2 1 8 16 21 23 21 21 22 25 27 28 28 26 21 20 21 18 17 16 14
6 5 4 3 3 3 2 1 2 3 5 17 13 6 3 5 4 2 4 1 2 3 1 3 2 13 19 24 23 24 26 26 28 28 26 25 23 20 18 16 16 15 13 11
8 6 5 4 3 4 4 6 6 8 7 8 8 6 6 3 3 2 3 2 2 3 3 2 13 22 25 27 28 29 28 28 27 27 23 20 19 20 19 16 14 11 9 7
6 8 4 4 3 5 8 11 9 6 7 6 8 3 3 3 3 2 2 4 2 1 1 12 26 26 28 30 30 29 26 23 21 19 17 18 18 17 16 15 11 9 6 3
5 5 11 9 9 6 5 6 6 5 4 3 3 4 2 1 3 3 3 2 1 4 11 19 26 28 28 30 28 27 21 21 18 20 19 18 16 16 15 13 10 6 3 2

GFSNW_850_spd_060.txt.gz
Wind_Speed
52 47 46 50 42 37 39 28 8 15 38 19 12 14 8 15 17 7 3 3 4 5 7 6 7 10 9 14 14 9 6 5 5 9 1 4 5 8 6 4 4 1 3 6
54 49 46 49 47 44 46 18 17 19 48 13 17 10 11 5 8 6 4 4 4 2 3 5 6 7 6 15 8 9 8 1 1 7 5 3 3 4 4 5 3 7 5 6
60 53 48 51 56 46 48 14 8 14 34 41 18 19 14 21 11 10 2 4 3 2 2 4 5 7 2 12 10 8 11 4 7 9 8 5 4 6 6 6 4 4 6 6
64 57 49 52 57 50 51 18 9 14 12 20 19 21 15 19 17 15 11 4 5 2 2 2 4 2 2 2 6 6 6 7 6 5 4 6 6 5 8 7 6 7 7 8
67 59 51 55 58 58 50 13 9 17 13 29 23 15 23 25 21 8 10 7 6 6 4 4 4 2 1 4 5 7 2 5 4 4 1 0 3 7 8 5 3 5 5 6
69 61 54 55 59 59 33 23 24 18 16 19 18 25 23 21 18 24 9 19 13 6 15 17 10 10 10 6 2 6 8 7 4 4 2 4 5 8 9 7 6 8 8 11
71 62 55 61 64 67 36 28 23 15 6 12 23 23 19 22 21 9 26 22 4 6 23 20 12 4 3 8 3 6 6 6 3 4 2 1 7 1 4 8 5 5 4 2
70 61 55 60 64 62 47 33 22 15 4 11 13 18 23 21 23 17 10 20 26 20 6 2 1 4 5 1 4 3 2 5 3 5 4 4 4 4 7 8 9 7 6 7
64 58 59 60 63 61 61 35 22 7 2 10 21 18 23 17 12 7 15 29 24 4 3 2 4 5 5 5 2 4 4 6 4 3 5 8 8 4 7 4 6 7 11 10
58 56 59 61 61 57 55 49 23 8 2 3 29 16 18 29 13 3 7 21 16 17 3 2 4 5 6 5 9 6 3 3 5 2 3 7 7 3 10 5 8 13 25 26
54 57 57 58 60 55 47 46 42 21 8 9 14 18 23 24 29 6 5 11 5 3 5 4 4 3 6 4 4 6 7 7 3 3 2 6 11 5 9 8 4 21 24 27
56 62 52 57 54 47 42 40 49 13 12 5 6 17 24 38 39 28 22 7 8 13 4 2 3 1 1 4 4 2 3 5 6 9 7 3 20 5 16 7 9 21 27 25
54 53 53 50 46 42 37 49 46 16 13 10 6 12 20 24 20 33 14 12 6 9 9 5 3 3 4 4 5 3 4 5 3 2 4 5 11 15 11 15 18 24 25 25
48 45 47 47 40 36 36 43 43 11 11 2 3 8 10 9 17 22 29 12 20 6 6 3 3 3 7 3 4 5 5 7 6 3 5 8 12 14 15 16 18 22 22 23
41 41 40 37 37 35 26 36 38 25 5 2 6 4 6 5 13 18 18 25 18 10 4 2 3 4 4 0 1 2 7 8 6 8 15 11 10 21 22 23 24 23 24 23
37 36 36 34 31 37 35 12 24 34 34 6 4 5 2 4 8 16 23 23 24 14 7 3 4 3 4 4 4 5 19 13 19 3 11 14 16 27 26 26 23 21 20 20
37 35 35 36 39 40 29 8 15 25 22 3 4 5 0 2 2 4 10 21 15 12 7 4 5 3 6 2 3 4 4 8 13 11 18 12 25 17 25 25 24 22 20 21
38 35 37 35 41 34 12 8 13 29 11 2 2 3 4 3 3 1 3 8 9 4 6 5 3 4 3 3 1 3 3 8 13 18 7 13 23 26 25 23 24 25 24 25
34 38 40 39 26 11 11 21 31 24 9 8 3 2 3 1 4 6 5 4 2 3 2 2 5 2 5 5 5 11 12 7 12 9 13 19 27 27 26 26 27 29 30 30
47 48 17 8 11 23 38 21 10 8 8 4 3 5 1 2 4 3 5 5 2 2 2 8 2 3 5 11 12 16 14 8 17 23 17 21 24 26 26 27 28 29 33 32
19 6 7 27 29 13 5 5 5 3 2 6 6 15 3 2 3 2 2 3 0 3 2 4 1 3 3 9 14 16 16 14 18 9 17 22 26 34 32 28 26 27 28 30
9 18 30 19 5 5 4 3 3 4 5 5 3 6 7 7 6 3 1 2 1 3 4 3 2 2 3 11 17 16 17 19 9 7 18 20 23 25 26 27 26 27 26 26
24 10 5 5 2 3 6 7 3 2 3 6 6 2 5 5 3 5 2 1 1 2 1 1 2 4 10 16 18 19 17 16 18 21 20 20 22 22 23 28 27 26 24 23
1 5 5 1 2 1 0 2 3 3 3 10 11 4 2 4 3 2 3 1 2 2 1 2 1 11 18 22 23 24 22 21 21 21 19 18 22 26 27 26 23 22 22 18
3 3 3 3 1 4 5 7 6 4 11 11 9 6 4 2 4 2 2 2 2 2 1 2 7 15 19 21 21 22 21 20 19 20 22 25 27 27 25 20 20 16 16 18
4 8 4 6 4 4 7 9 8 7 8 6 7 3 3 4 2 3 4 2 3 2 2 3 14 14 17 19 18 18 18 18 21 23 25 26 24 22 21 19 17 15 13 13
5 5 16 9 8 9 8 9 10 8 5 2 2 4 4 2 3 3 4 3 3 6 7 9 12 14 16 17 17 16 18 21 24 24 21 21 18 17 19 18 16 14 12 10

GFSNW_850_spd_063.txt.gz
Wind_Speed
52 51 49 44 39 39 36 27 10 20 33 19 16 18 18 17 24 3 1 2 3 4 6 5 7 10 5 17 17 10 7 4 4 6 1 2 2 6 6 3 4 1 1 6
54 54 56 47 44 43 43 16 22 27 45 14 15 17 22 17 14 11 6 3 4 2 3 4 5 6 5 18 9 12 8 1 3 1 1 2 2 4 4 5 3 7 5 5
56 55 63 50 48 47 48 17 7 14 32 37 23 21 19 21 24 10 5 3 1 2 3 4 5 6 3 16 9 15 15 4 6 9 8 5 4 6 7 6 4 5 7 10
56 56 67 55 52 52 51 21 6 13 12 22 20 21 20 27 16 23 17 3 10 2 3 2 3 2 2 3 6 5 5 7 6 5 5 5 6 5 12 11 10 8 11 11
57 57 71 58 55 56 42 16 6 20 8 36 23 18 22 27 23 12 18 15 9 15 4 4 4 6 1 1 0 4 2 4 5 4 3 6 5 6 8 9 5 9 8 8
58 57 75 62 58 64 38 34 33 22 24 20 18 21 23 17 20 21 7 15 2 5 20 5 6 3 6 4 2 4 5 6 4 5 1 5 4 7 9 5 6 6 9 10
53 60 78 64 62 69 42 35 20 17 12 14 19 21 16 26 23 11 23 8 15 7 14 14 8 4 3 5 5 6 5 6 1 3 1 5 4 2 4 10 7 9 6 5
46 68 80 65 64 68 42 39 34 15 9 12 19 21 25 18 24 19 13 19 7 10 6 3 4 4 3 1 1 4 3 5 3 4 5 3 3 5 7 7 13 8 12 8
49 74 79 65 63 64 52 34 39 15 8 13 17 23 27 12 14 6 14 11 11 2 2 2 8 6 3 4 2 3 4 4 3 3 5 9 8 5 9 4 10 8 13 10
51 77 72 65 61 64 58 39 33 13 5 8 25 16 21 26 11 5 7 20 5 7 1 1 4 8 1 4 7 5 3 2 5 3 4 5 6 5 13 6 9 8 19 17
69 75 67 62 60 62 55 38 32 23 7 10 11 21 26 29 24 8 9 7 8 2 4 3 3 3 8 5 2 4 6 8 4 3 2 8 11 7 9 9 7 9 20 24
73 69 61 59 59 61 54 36 38 42 4 4 6 17 27 43 41 22 26 12 9 13 4 4 3 2 1 7 13 2 4 5 5 8 6 2 25 7 21 8 7 9 20 27
68 64 55 53 58 58 45 36 34 25 8 9 9 12 23 38 41 44 12 10 12 10 11 6 3 4 4 4 5 4 4 4 3 2 4 6 13 22 12 14 15 12 19 31
55 51 52 53 54 55 35 35 31 30 2 2 8 13 17 31 29 38 35 16 18 8 9 3 2 3 8 4 3 5 3 8 6 3 5 6 16 20 24 19 15 15 19 30
48 50 51 48 46 40 31 26 22 34 7 3 7 2 12 21 26 29 38 31 14 10 3 2 3 3 3 0 1 3 6 6 5 6 13 11 13 20 26 23 21 22 25 27
53 49 44 42 40 35 29 7 20 32 24 7 2 2 6 16 22 25 27 32 25 14 6 4 5 5 6 4 5 4 17 10 12 4 6 17 12 9 20 22 23 25 27 28
42 38 35 34 32 32 22 6 15 38 32 6 3 3 4 11 17 14 14 19 12 12 9 5 5 5 6 2 4 3 6 9 12 11 6 6 10 8 17 21 24 24 23 24
36 34 31 33 30 29 13 4 18 23 25 3 3 3 3 4 4 5 6 9 12 8 8 4 3 4 2 4 4 7 6 7 8 12 12 9 11 13 21 22 23 25 25 25
40 39 37 35 30 17 14 26 19 24 11 6 4 2 3 3 5 5 4 4 1 4 3 3 8 3 6 4 9 15 14 10 8 6 5 10 15 21 23 24 23 25 25 27
39 38 27 10 23 23 30 23 12 9 9 4 2 2 2 4 3 2 3 3 1 2 4 14 3 3 4 6 8 11 15 11 11 12 7 10 19 25 25 22 22 21 24 27
26 6 4 24 29 24 6 6 4 5 3 6 5 6 3 3 3 3 1 2 1 2 3 5 3 2 1 6 8 12 14 14 14 7 7 7 12 20 24 24 24 25 26 27
9 14 18 19 6 5 4 3 1 2 5 4 4 3 2 4 3 3 1 2 1 4 2 3 2 1 4 1 8 11 13 13 5 6 5 13 16 21 22 24 25 26 27 27
26 7 3 4 2 2 4 5 2 3 4 9 9 4 7 4 3 3 2 2 3 5 2 1 2 2 7 7 11 13 12 11 11 15 16 16 20 21 20 23 24 26 28 25
4 2 3 2 3 2 2 2 4 3 6 17 16 5 3 4 2 2 4 1 1 1 1 2 2 7 11 13 14 18 17 15 16 18 18 19 19 21 21 23 23 24 25 23
7 4 2 2 1 5 4 6 6 4 16 15 9 7 5 2 3 1 3 2 1 2 1 2 3 10 13 15 16 18 20 19 19 17 17 20 23 25 26 23 21 21 21 17
3 7 4 8 5 5 8 9 6 6 11 10 5 3 3 3 3 2 3 2 2 2 2 2 7 12 15 18 18 17 16 15 16 17 19 23 24 25 25 24 20 13 12 14
5 5 16 10 7 7 7 8 9 6 5 2 3 4 3 3 3 3 3 3 3 7 6 7 10 15 17 19 19 18 18 21 22 24 25 25 22 21 20 19 16 14 12 11

GFSNW_850_spd_066.txt.gz
Wind_Speed
47 46 45 43 42 37 36 29 6 20 41 17 10 19 29 16 28 15 6 3 4 3 7 14 18 19 13 27 26 23 18 9 9 13 4 5 9 12 14 7 8 4 4 8
50 47 47 47 47 47 43 23 13 20 40 12 14 26 30 28 15 28 9 7 6 1 4 6 17 11 12 16 20 21 16 10 10 11 7 5 8 11 11 7 2 11 8 7
50 49 50 50 53 52 48 20 7 13 32 39 30 26 25 30 31 20 31 5 9 5 4 7 1 9 4 16 24 19 24 14 18 14 12 10 14 13 14 14 9 11 12 16
53 48 51 53 61 57 51 25 11 18 14 19 28 29 22 28 26 34 22 21 13 11 4 3 6 5 3 5 6 11 13 18 17 17 15 13 16 16 17 18 17 16 13 15
48 46 58 56 68 62 50 20 11 33 16 39 32 30 30 29 33 24 27 18 23 16 5 4 4 5 2 3 5 9 9 13 12 13 11 13 15 17 17 18 16 12 17 17
48 48 50 63 73 70 39 38 32 31 22 27 22 24 32 30 29 33 31 25 15 12 18 13 7 5 4 4 1 8 6 10 7 13 5 5 7 15 15 14 12 14 15 15
48 48 51 71 78 77 47 46 32 19 13 17 19 29 29 32 29 24 20 21 22 16 7 6 12 7 9 8 8 10 6 11 6 6 4 7 13 2 12 17 16 16 15 14
49 47 46 63 83 77 46 40 38 24 12 19 25 28 32 31 34 26 26 12 17 16 8 5 1 7 6 9 5 10 10 7 5 5 10 11 8 5 8 11 16 17 17 18
47 49 53 63 84 72 43 40 41 27 13 18 40 22 33 22 22 18 27 27 13 12 4 5 7 7 6 5 5 2 6 5 6 4 7 8 6 13 13 6 13 12 14 14
45 50 53 72 82 73 44 40 39 30 20 25 23 19 22 38 25 16 18 13 16 16 5 3 5 6 7 4 4 5 4 3 10 8 5 4 3 8 14 9 15 5 11 11
45 42 63 77 80 74 45 37 46 34 13 9 22 26 30 37 30 16 18 15 8 9 8 7 5 3 8 8 6 3 5 7 4 4 5 9 12 11 10 12 4 8 11 13
47 45 63 78 74 69 44 33 39 31 20 4 8 11 19 36 40 30 32 17 24 11 8 6 4 3 3 10 6 15 6 7 4 8 5 3 26 14 21 7 8 8 12 14
48 42 72 77 69 66 42 40 36 31 16 14 11 14 18 28 32 30 16 18 17 17 10 5 3 4 7 6 8 8 12 6 5 2 8 11 13 19 13 12 12 7 8 13
36 66 75 70 64 56 41 40 36 26 10 0 8 13 19 25 37 40 35 18 16 12 16 5 3 3 8 6 8 9 6 10 13 11 12 7 12 18 21 20 15 15 14 17
58 64 64 59 59 43 38 30 29 28 19 3 5 8 21 24 36 38 34 14 19 13 7 3 5 3 3 1 1 5 8 8 6 6 10 9 14 7 11 19 21 20 17 18
61 58 56 55 54 41 37 12 29 30 19 2 4 4 18 20 30 31 40 31 12 12 10 5 6 5 7 4 8 11 16 12 13 6 6 9 13 15 13 12 15 17 17 21
47 53 53 46 40 35 21 8 12 28 16 3 3 4 10 23 26 26 26 30 22 15 10 5 5 7 7 3 7 5 8 11 11 13 11 9 12 5 9 10 13 14 17 19
53 56 51 42 36 26 14 4 8 26 17 1 2 4 3 18 12 7 14 13 13 12 10 2 5 4 3 5 11 21 12 8 9 10 11 11 11 7 6 9 13 16 17 20
39 38 38 32 16 9 9 13 18 11 11 3 4 3 3 5 7 8 5 6 3 3 3 4 6 4 6 6 12 14 16 10 6 6 5 6 6 6 8 10 13 18 18 20
40 38 14 7 12 16 27 13 5 5 6 3 2 5 4 4 4 3 5 3 3 3 4 5 4 9 13 5 2 4 6 6 6 5 2 6 8 9 11 11 11 16 21 21
26 8 5 14 19 14 4 5 5 5 4 7 4 5 3 4 3 3 2 3 2 3 2 2 3 4 6 1 3 6 8 9 5 1 0 5 8 14 15 15 15 17 22 25
14 14 23 21 7 3 4 3 1 4 6 8 6 5 6 5 4 4 2 3 2 3 1 2 1 3 6 4 6 8 9 8 5 5 8 10 11 14 16 16 17 17 20 23
15 9 6 5 3 3 4 8 4 4 4 6 6 3 2 2 4 3 2 3 2 2 2 1 1 5 8 7 11 13 11 9 10 13 15 15 16 15 12 16 17 21 25 25
4 2 5 1 3 1 1 4 5 3 5 13 10 3 2 1 2 1 2 1 2 2 1 2 2 4 8 8 11 16 18 17 18 18 20 20 20 21 21 22 25 27 29 25
5 6 6 5 3 6 4 4 5 6 14 18 6 5 3 2 3 2 2 3 3 4 2 2 4 5 11 16 18 21 22 22 22 21 24 25 27 28 29 27 26 26 24 20
5 8 4 10 3 5 8 10 6 5 13 8 5 3 2 2 2 2 3 1 4 3 2 4 7 12 16 19 21 22 22 23 25 27 28 29 29 29 29 26 21 20 17 15
5 5 15 8 5 6 7 8 7 4 3 2 2 3 5 2 3 3 4 3 3 4 8 10 12 17 21 23 24 24 25 27 29 29 28 27 26 26 23 22 19 17 15 13